Starlink 4430

operational
NORAD ID: 53485 Int'l Des: 2022-099 Owner: SPXS Country: US Constellation: starlink
LEOCIRCULARRETROGRADESSO

About Starlink 4430

Description loading...

Live Position

Loading 3D Globe...

Upcoming Passes

Altitude History

Altitude vs Time

uPlot chart will show altitude changes over time

Two-Line Element Set

1 53485U 22099W 25306.32351116 -.00006226 00000-0 -48023-3 0 9993
2 53485 97.6038 65.5207 0002213 81.1600 278.9875 15.01290281176873
Epoch: Nov 2, 2025 • Age: 9 hours

Current Status

Altitude 580.9 km
Velocity 7.57 km/s
Sub-Earth Point -43.24°S, 54.81°W
Launch Date Aug 12, 2022
Age 3.2 years
Type internet

Technical Details

Classification Payload
Mass 300.00 kg
Dry Mass 275.00 kg
Total Mass 300.00 kg
Length 0.20 m
Diameter 2.80 m
Span 9.00 m
Shape Box + pan
Manufacturer SPXS
Bus Type Starlink
Phase Status In Orbit
Owner/State SPXS/US

Large Constellations

Loading constellations...